San Angelo, TX

12:29 AM CDT on October 17, 2017 (GMT -0500)
San Angelo Regional-Mathis

Weather History for KSJT - November, 2010

Change the Weather History Date:

Monday, November 29, 2010

  Actual Average Record
Temperature  
Mean Temperature 53 °F 50 °F  
Max Temperature 66 °F 63 °F 81 °F (1975)
Min Temperature 40 °F 37 °F 12 °F (1911)
Degree Days  
Heating Degree Days 12 15  
Month to date heating degree days 240 294  
Since 1 July heating degree days 264 385  
Cooling Degree Days 0 0  
Month to date cooling degree days 20 15  
Year to date cooling degree days 2958 2499  
Growing Degree Days 2 (Base 50)    
Moisture  
Dew Point 30 °F    
Average Humidity 52    
Maximum Humidity 89    
Minimum Humidity 15    
Precipitation  
Precipitation 0.00 in 0.03 in 1.16 in (1929)
Month to date precipitation T 1.12  
Year to date precipitation 19.14 20.38  
Snow  
Snow 0.00 in 0.00 in T in (1972)
Month to date snowfall 0.0 0.3  
Since 1 July snowfall 0.0 0.3  
Snow Depth 0.00 in    
Sea Level Pressure  
Sea Level Pressure 29.83 in    
Wind  
Wind Speed 11 mph (West)    
Max Wind Speed 29 mph    
Max Gust Speed 36 mph    
Visibility 10 miles    
Events      
T = Trace of Precipitation, MM = Missing Value Source: NWS Daily Summary

Daily Weather History Graph

Daily Weather History Graph

Search for Another Location

Airport or City:

Trip Planner

Search our weather history database for the weather conditions in past years. The results will help you decide how hot, cold, wet, or windy it might be!

Date:

Astronomy

Nov. 29, 2010 Rise Set
Actual Time 7:21 AM CST 5:38 PM CST
Civil Twilight 6:55 AM CST 6:05 PM CST
Nautical Twilight 6:25 AM CST 6:35 PM CST
Astronomical Twilight 5:56 AM CST 7:04 PM CST
Moon 12:53 AM CST (11/29) 1:20 PM CST (11/29)
Length of Visible Light 11h 10m
Length of Day
10h 17m
Last Quarter, 40% of the Moon is Illuminated
Nov 29
Last Quarter
Dec 5
New
Dec 13
First Quarter
Dec 21
Full
Dec 27
Last Quarter

Hourly Weather History & Observations

Time (CST) Temp. Windchill Dew Point Humidity Pressure Visibility Wind Dir Wind Speed Gust Speed Precip Events Conditions
12:49 AM 51.8 °F - 44.6 °F 76% 29.69 in 10.0 mi WSW 5.8 mph - N/A   Mostly Cloudy
12:51 AM 52.0 °F - 45.0 °F 77% 29.67 in 10.0 mi WSW 5.8 mph - N/A   Mostly Cloudy
1:22 AM 53.6 °F - 44.6 °F 72% 29.70 in 10.0 mi West 8.1 mph - N/A   Scattered Clouds
1:51 AM 50.0 °F - 43.0 °F 77% 29.67 in 10.0 mi WSW 8.1 mph - N/A   Clear
2:51 AM 53.1 °F - 45.0 °F 74% 29.70 in 10.0 mi West 6.9 mph - N/A   Clear
3:51 AM 48.0 °F - 43.0 °F 83% 29.70 in 10.0 mi SSW 6.9 mph - N/A   Clear
4:51 AM 48.0 °F - 43.0 °F 83% 29.74 in 10.0 mi West 9.2 mph - N/A   Clear
5:51 AM 48.0 °F - 43.0 °F 83% 29.77 in 10.0 mi West 9.2 mph - N/A   Clear
6:51 AM 43.0 °F 41.3 °F 39.0 °F 86% 29.80 in 10.0 mi West 3.5 mph - N/A   Clear
7:51 AM 41.0 °F - 37.0 °F 86% 29.83 in 10.0 mi Calm Calm - N/A   Clear
8:51 AM 48.9 °F - 39.9 °F 71% 29.86 in 10.0 mi West 3.5 mph - N/A   Clear
9:51 AM 55.0 °F - 32.0 °F 42% 29.86 in 10.0 mi West 4.6 mph - N/A   Clear
10:51 AM 62.1 °F - 19.9 °F 20% 29.85 in 10.0 mi WNW 6.9 mph - N/A   Clear
11:51 AM 63.0 °F - 23.0 °F 22% 29.84 in 10.0 mi West 8.1 mph - N/A   Clear
12:51 PM 64.0 °F - 24.1 °F 22% 29.81 in 10.0 mi WNW 11.5 mph 17.3 mph N/A   Clear
1:51 PM 64.9 °F - 24.1 °F 21% 29.78 in 10.0 mi WNW 9.2 mph - N/A   Clear
2:51 PM 64.9 °F - 25.0 °F 22% 29.77 in 10.0 mi WNW 8.1 mph - N/A   Clear
3:51 PM 64.9 °F - 26.1 °F 23% 29.78 in 10.0 mi West 13.8 mph 21.9 mph N/A   Clear
4:51 PM 64.0 °F - 26.1 °F 24% 29.80 in 10.0 mi West 13.8 mph 23.0 mph N/A   Clear
5:51 PM 60.1 °F - 21.9 °F 23% 29.84 in 10.0 mi NW 15.0 mph 24.2 mph N/A   Clear
6:51 PM 59.0 °F - 21.0 °F 23% 29.90 in 10.0 mi WNW 17.3 mph 25.3 mph N/A   Mostly Cloudy
7:51 PM 59.0 °F - 16.0 °F 19% 29.96 in 10.0 mi WNW 21.9 mph 28.8 mph N/A   Overcast
8:51 PM 59.0 °F - 12.0 °F 16% 29.99 in 10.0 mi West 13.8 mph 23.0 mph N/A   Overcast
9:51 PM 57.0 °F - 10.9 °F 16% 30.03 in 10.0 mi WNW 21.9 mph 33.4 mph N/A   Overcast
10:51 PM 55.0 °F - 10.0 °F 17% 30.04 in 10.0 mi NW 16.1 mph 26.5 mph N/A   Overcast
11:51 PM 50.0 °F - 26.1 °F 39% 30.09 in 10.0 mi NNW 25.3 mph 35.7 mph N/A   Overcast